Time,TemperatureF,DewpointF,PressureIn,WindDirection,WindDirectionDegrees,WindSpeedMPH,WindSpeedGustMPH,Humidity,HourlyPrecipIn,Conditions,Clouds,dailyrainin,SoftwareType,DateUTC
2013-09-29 00:01:00,47.1,45.2,29.87,WSW,245,0.0,0.0,93,0.00,,BKN110,0.00,VWS V14.01,2013-09-29 05:01:00,
2013-09-29 00:06:00,47.1,45.5,29.88,WSW,245,0.0,0.0,94,0.00,,BKN110,0.00,VWS V14.01,2013-09-29 05:06:00,
2013-09-29 00:11:00,47.1,45.5,29.88,WSW,242,0.0,0.0,94,0.00,,BKN110,0.00,VWS V14.01,2013-09-29 05:11:00,
2013-09-29 00:16:00,47.1,45.5,29.88,WSW,238,0.0,0.0,94,0.00,,SCT110,0.00,VWS V14.01,2013-09-29 05:16:00,
2013-09-29 00:21:00,47.1,45.5,29.87,SW,236,0.0,0.0,94,0.00,,BKN110,0.00,VWS V14.01,2013-09-29 05:21:00,
2013-09-29 00:26:00,47.2,45.6,29.87,WSW,242,0.0,1.0,94,0.00,,BKN110,0.00,VWS V14.01,2013-09-29 05:26:00,
2013-09-29 00:31:00,47.2,45.3,29.87,WSW,240,0.0,2.0,93,0.00,,BKN110,0.00,VWS V14.01,2013-09-29 05:31:00,
2013-09-29 00:36:00,47.1,45.2,29.87,WSW,238,1.0,2.0,93,0.00,,SCT110,0.00,VWS V14.01,2013-09-29 05:36:00,
2013-09-29 00:41:00,47.1,45.2,29.87,WSW,238,1.0,2.0,93,0.00,,SCT110,0.00,VWS V14.01,2013-09-29 05:41:00,
2013-09-29 00:46:00,47.0,45.1,29.87,SW,232,0.0,2.0,93,0.00,,SCT110,0.00,VWS V14.01,2013-09-29 05:46:00,
2013-09-29 00:51:00,46.9,45.0,29.87,SW,235,1.0,2.0,93,0.00,,SCT110,0.00,VWS V14.01,2013-09-29 05:51:00,
2013-09-29 00:56:00,46.8,44.9,29.87,WSW,242,1.0,2.0,93,0.00,,SCT110,0.00,VWS V14.01,2013-09-29 05:56:00,
2013-09-29 01:01:00,46.7,44.8,29.87,WSW,237,1.0,1.0,93,0.00,,SCT110,0.00,VWS V14.01,2013-09-29 06:01:00,
2013-09-29 01:06:00,46.7,44.8,29.88,WSW,239,1.0,2.0,93,0.00,,SCT110,0.00,VWS V14.01,2013-09-29 06:06:00,
2013-09-29 01:11:00,46.7,44.8,29.88,SW,236,0.0,2.0,93,0.00,,SCT110,0.00,VWS V14.01,2013-09-29 06:11:00,
2013-09-29 01:16:00,46.9,45.0,29.88,WSW,242,1.0,2.0,93,0.00,,SCT110,0.00,VWS V14.01,2013-09-29 06:16:00,
2013-09-29 01:22:00,46.9,45.0,29.88,SW,236,0.0,2.0,93,0.00,,SCT110,0.00,VWS V14.01,2013-09-29 06:22:00,
2013-09-29 01:27:00,46.9,45.0,29.88,WSW,248,0.0,2.0,93,0.00,,SCT110,0.00,VWS V14.01,2013-09-29 06:27:00,
2013-09-29 01:32:00,46.7,44.8,29.88,WSW,243,0.0,1.0,93,0.00,,SCT110,0.00,VWS V14.01,2013-09-29 06:32:00,
2013-09-29 01:37:00,46.6,44.7,29.88,WSW,244,0.0,1.0,93,0.00,,SCT110,0.00,VWS V14.01,2013-09-29 06:37:00,
2013-09-29 01:42:00,46.5,44.6,29.88,WSW,243,0.0,1.0,93,0.00,,SCT110,0.00,VWS V14.01,2013-09-29 06:42:00,
2013-09-29 01:47:00,46.4,44.8,29.88,WSW,243,0.0,1.0,94,0.00,,SCT110,0.00,VWS V14.01,2013-09-29 06:47:00,
2013-09-29 01:52:00,46.3,44.7,29.88,WSW,243,0.0,1.0,94,0.00,,SCT110,0.00,VWS V14.01,2013-09-29 06:52:00,
2013-09-29 01:57:00,46.3,44.7,29.88,WSW,242,0.0,1.0,94,0.00,,SCT110,0.00,VWS V14.01,2013-09-29 06:57:00,
2013-09-29 02:02:00,46.2,44.6,29.88,WSW,242,0.0,0.0,94,0.00,,SCT110,0.00,VWS V14.01,2013-09-29 07:02:00,
2013-09-29 02:07:00,46.1,44.5,29.88,WSW,242,0.0,0.0,94,0.00,,SCT110,0.00,VWS V14.01,2013-09-29 07:07:00,
2013-09-29 02:12:00,46.0,44.4,29.89,WSW,240,0.0,0.0,94,0.00,,SCT110,0.00,VWS V14.01,2013-09-29 07:12:00,
2013-09-29 02:17:00,46.0,44.4,29.89,WSW,240,0.0,0.0,94,0.00,,SCT110,0.00,VWS V14.01,2013-09-29 07:17:00,
2013-09-29 02:22:00,46.0,44.4,29.89,WSW,238,0.0,2.0,94,0.00,,SCT110,0.00,VWS V14.01,2013-09-29 07:22:00,
2013-09-29 02:27:00,46.1,44.5,29.89,WSW,238,2.0,2.0,94,0.00,,SCT110,0.00,VWS V14.01,2013-09-29 07:27:00,
2013-09-29 02:32:00,46.3,44.7,29.88,SW,226,0.0,2.0,94,0.00,,SCT110,0.00,VWS V14.01,2013-09-29 07:32:00,
2013-09-29 02:37:00,46.3,44.7,29.88,WSW,238,1.0,2.0,94,0.00,,SCT110,0.00,VWS V14.01,2013-09-29 07:37:00,
2013-09-29 02:42:00,46.5,44.9,29.88,SW,235,1.0,2.0,94,0.00,,SCT110,0.00,VWS V14.01,2013-09-29 07:42:00,
2013-09-29 02:47:00,46.6,45.0,29.88,WSW,240,1.0,3.0,94,0.00,,SCT110,0.00,VWS V14.01,2013-09-29 07:47:00,
2013-09-29 02:52:00,46.7,45.1,29.88,SW,236,1.0,3.0,94,0.00,,SCT110,0.00,VWS V14.01,2013-09-29 07:52:00,
2013-09-29 02:56:00,46.7,44.8,29.88,SW,236,1.0,3.0,93,0.00,,SCT110,0.00,VWS V14.01,2013-09-29 07:56:00,
2013-09-29 03:01:00,46.7,44.8,29.88,WSW,238,1.0,2.0,93,0.00,,SCT110,0.00,VWS V14.01,2013-09-29 08:01:00,
2013-09-29 03:06:00,46.7,44.8,29.88,WSW,238,0.0,2.0,93,0.00,,SCT110,0.00,VWS V14.01,2013-09-29 08:06:00,
2013-09-29 03:11:00,46.6,44.7,29.88,WSW,243,1.0,2.0,93,0.00,,SCT110,0.00,VWS V14.01,2013-09-29 08:11:00,
2013-09-29 03:16:00,46.5,44.6,29.88,WSW,242,0.0,2.0,93,0.00,,SCT110,0.00,VWS V14.01,2013-09-29 08:16:00,
2013-09-29 03:21:00,46.5,44.6,29.88,WSW,242,0.0,2.0,93,0.00,,SCT110,0.00,VWS V14.01,2013-09-29 08:21:00,
2013-09-29 03:26:00,46.4,44.5,29.88,WSW,238,1.0,2.0,93,0.00,,SCT110,0.00,VWS V14.01,2013-09-29 08:26:00,
2013-09-29 03:31:00,46.3,44.4,29.88,SW,232,1.0,1.0,93,0.00,,SCT110,0.00,VWS V14.01,2013-09-29 08:31:00,
2013-09-29 03:36:00,46.1,44.2,29.88,SW,236,1.0,1.0,93,0.00,,SCT110,0.00,VWS V14.01,2013-09-29 08:36:00,
2013-09-29 03:41:00,46.1,44.5,29.88,WSW,237,1.0,1.0,94,0.00,,SCT110,0.00,VWS V14.01,2013-09-29 08:41:00,
2013-09-29 03:46:00,46.3,44.7,29.88,WSW,238,0.0,2.0,94,0.00,,SCT110,0.00,VWS V14.01,2013-09-29 08:46:00,
2013-09-29 03:51:00,46.2,44.3,29.88,WSW,245,1.0,2.0,93,0.00,,SCT110,0.00,VWS V14.01,2013-09-29 08:51:00,
2013-09-29 03:57:00,46.1,44.2,29.88,WSW,245,1.0,2.0,93,0.00,,SCT110,0.00,VWS V14.01,2013-09-29 08:57:00,
2013-09-29 04:02:00,46.0,44.1,29.88,WSW,256,0.0,1.0,93,0.00,,SCT110,0.00,VWS V14.01,2013-09-29 09:02:00,
2013-09-29 04:07:00,45.8,43.9,29.88,West,259,1.0,2.0,93,0.00,,SCT110,0.00,VWS V14.01,2013-09-29 09:07:00,
2013-09-29 04:12:00,45.7,43.8,29.88,WSW,255,0.0,2.0,93,0.00,,SCT110,0.00,VWS V14.01,2013-09-29 09:12:00,
2013-09-29 04:17:00,45.6,43.7,29.88,WSW,256,0.0,2.0,93,0.00,,SCT110,0.00,VWS V14.01,2013-09-29 09:17:00,
2013-09-29 04:22:00,45.5,43.6,29.88,WSW,250,0.0,2.0,93,0.00,,SCT110,0.00,VWS V14.01,2013-09-29 09:22:00,
2013-09-29 04:27:00,45.5,43.9,29.88,SW,232,0.0,2.0,94,0.00,,SCT110,0.00,VWS V14.01,2013-09-29 09:27:00,
2013-09-29 04:32:00,45.5,43.6,29.88,West,269,0.0,1.0,93,0.00,,SCT110,0.00,VWS V14.01,2013-09-29 09:32:00,
2013-09-29 04:37:00,45.5,43.6,29.88,West,269,0.0,1.0,93,0.00,,SCT110,0.00,VWS V14.01,2013-09-29 09:37:00,
2013-09-29 04:42:00,45.4,43.8,29.89,West,269,0.0,1.0,94,0.00,,SCT110,0.00,VWS V14.01,2013-09-29 09:42:00,
2013-09-29 04:47:00,45.3,43.7,29.89,WSW,249,0.0,1.0,94,0.00,,SCT110,0.00,VWS V14.01,2013-09-29 09:47:00,
2013-09-29 04:52:00,45.3,43.7,29.89,WSW,249,0.0,1.0,94,0.00,,SCT110,0.00,VWS V14.01,2013-09-29 09:52:00,
2013-09-29 04:57:00,45.3,43.7,29.89,WSW,249,0.0,1.0,94,0.00,,SCT110,0.00,VWS V14.01,2013-09-29 09:57:00,
2013-09-29 05:02:00,45.3,43.4,29.89,WSW,249,0.0,1.0,93,0.00,,SCT110,0.00,VWS V14.01,2013-09-29 10:02:00,
2013-09-29 05:07:00,45.2,43.6,29.89,WSW,250,0.0,1.0,94,0.00,,SCT110,0.00,VWS V14.01,2013-09-29 10:07:00,
2013-09-29 05:12:00,45.1,43.5,29.89,West,259,0.0,1.0,94,0.00,,SCT110,0.00,VWS V14.01,2013-09-29 10:12:00,
2013-09-29 05:17:00,45.1,43.5,29.89,West,260,0.0,1.0,94,0.00,,SCT110,0.00,VWS V14.01,2013-09-29 10:17:00,
2013-09-29 05:22:00,45.0,43.4,29.89,WSW,252,0.0,1.0,94,0.00,,SCT110,0.00,VWS V14.01,2013-09-29 10:22:00,
2013-09-29 05:27:00,45.1,43.5,29.89,WSW,245,0.0,0.0,94,0.00,,SCT110,0.00,VWS V14.01,2013-09-29 10:27:00,
2013-09-29 05:33:00,45.0,43.4,29.89,WSW,245,1.0,1.0,94,0.00,,SCT110,0.00,VWS V14.01,2013-09-29 10:33:00,
2013-09-29 05:37:00,45.0,43.4,29.89,WSW,245,0.0,1.0,94,0.00,,SCT110,0.00,VWS V14.01,2013-09-29 10:37:00,
2013-09-29 05:42:00,45.0,43.4,29.89,WSW,253,0.0,1.0,94,0.00,,SCT110,0.00,VWS V14.01,2013-09-29 10:42:00,
2013-09-29 05:47:00,45.0,43.4,29.90,WSW,250,0.0,1.0,94,0.00,,SCT110,0.00,VWS V14.01,2013-09-29 10:47:00,
2013-09-29 05:53:00,44.9,43.0,29.90,WSW,245,1.0,1.0,93,0.00,,SCT110,0.00,VWS V14.01,2013-09-29 10:53:00,
2013-09-29 05:57:00,44.9,43.3,29.90,WSW,248,0.0,0.0,94,0.00,,CLR,0.00,VWS V14.01,2013-09-29 10:57:00,
2013-09-29 06:02:00,44.9,43.3,29.90,WSW,252,0.0,1.0,94,0.00,,CLR,0.00,VWS V14.01,2013-09-29 11:02:00,
2013-09-29 06:08:00,44.8,43.2,29.90,WSW,255,0.0,1.0,94,0.00,,CLR,0.00,VWS V14.01,2013-09-29 11:08:00,
2013-09-29 06:13:00,44.6,42.7,29.90,WSW,252,0.0,1.0,93,0.00,,CLR,0.00,VWS V14.01,2013-09-29 11:13:00,
2013-09-29 06:18:00,44.6,43.0,29.90,WSW,252,0.0,1.0,94,0.00,,CLR,0.00,VWS V14.01,2013-09-29 11:18:00,
2013-09-29 06:23:00,44.5,42.9,29.90,WSW,243,1.0,1.0,94,0.00,,CLR,0.00,VWS V14.01,2013-09-29 11:23:00,
2013-09-29 06:28:00,44.6,43.0,29.90,WSW,244,0.0,1.0,94,0.00,,CLR,0.00,VWS V14.01,2013-09-29 11:28:00,
2013-09-29 06:33:00,44.5,42.9,29.91,WSW,243,0.0,1.0,94,0.00,,SCT110,0.00,VWS V14.01,2013-09-29 11:33:00,
2013-09-29 06:38:00,44.4,42.8,29.91,WSW,242,0.0,1.0,94,0.00,,SCT110,0.00,VWS V14.01,2013-09-29 11:38:00,
2013-09-29 06:43:00,44.3,42.7,29.91,WSW,242,0.0,1.0,94,0.00,,SCT110,0.00,VWS V14.01,2013-09-29 11:43:00,
2013-09-29 06:48:00,44.1,42.5,29.91,SW,221,0.0,1.0,94,0.00,,SCT110,0.00,VWS V14.01,2013-09-29 11:48:00,
2013-09-29 06:53:00,44.1,42.5,29.91,WSW,240,0.0,1.0,94,0.00,,SCT110,0.00,VWS V14.01,2013-09-29 11:53:00,
2013-09-29 06:58:00,44.1,42.5,29.91,WSW,240,0.0,0.0,94,0.00,,SCT110,0.00,VWS V14.01,2013-09-29 11:58:00,
2013-09-29 07:03:00,44.1,42.8,29.91,WSW,240,0.0,1.0,95,0.00,,SCT110,0.00,VWS V14.01,2013-09-29 12:03:00,
2013-09-29 07:08:00,44.1,42.8,29.91,SW,228,0.0,1.0,95,0.00,,SCT110,0.00,VWS V14.01,2013-09-29 12:08:00,
2013-09-29 07:13:00,44.1,42.8,29.91,SSW,210,0.0,1.0,95,0.00,,SCT110,0.00,VWS V14.01,2013-09-29 12:13:00,
2013-09-29 07:18:00,44.1,42.8,29.91,SW,232,0.0,1.0,95,0.00,,SCT110,0.00,VWS V14.01,2013-09-29 12:18:00,
2013-09-29 07:23:00,44.1,42.8,29.91,SW,214,1.0,1.0,95,0.00,,SCT110,0.00,VWS V14.01,2013-09-29 12:23:00,
2013-09-29 07:28:00,44.3,43.0,29.91,SSW,205,1.0,2.0,95,0.00,,SCT110,0.00,VWS V14.01,2013-09-29 12:28:00,
2013-09-29 07:33:00,44.6,43.0,29.91,SSW,205,0.0,2.0,94,0.00,,SCT110,0.00,VWS V14.01,2013-09-29 12:33:00,
2013-09-29 07:38:00,45.0,43.4,29.91,SW,232,1.0,2.0,94,0.00,,SCT110,0.00,VWS V14.01,2013-09-29 12:38:00,
2013-09-29 07:43:00,45.4,43.5,29.91,SSW,203,0.0,2.0,93,0.00,,SCT110,0.00,VWS V14.01,2013-09-29 12:43:00,
2013-09-29 07:48:00,45.7,43.8,29.92,SSW,203,1.0,2.0,93,0.00,,CLR,0.00,VWS V14.01,2013-09-29 12:48:00,
2013-09-29 07:53:00,45.9,43.7,29.91,SSW,201,1.0,2.0,92,0.00,,CLR,0.00,VWS V14.01,2013-09-29 12:53:00,
2013-09-29 07:58:00,46.2,44.0,29.91,SW,225,1.0,2.0,92,0.00,,CLR,0.00,VWS V14.01,2013-09-29 12:58:00,
2013-09-29 08:03:00,46.5,44.3,29.92,SW,235,0.0,2.0,92,0.00,,CLR,0.00,VWS V14.01,2013-09-29 13:03:00,
2013-09-29 08:08:00,46.6,44.4,29.91,SSW,212,0.0,2.0,92,0.01,,CLR,0.01,VWS V14.01,2013-09-29 13:08:00,
2013-09-29 08:13:00,46.9,44.7,29.92,WSW,237,1.0,3.0,92,0.01,,CLR,0.01,VWS V14.01,2013-09-29 13:13:00,
2013-09-29 08:18:00,47.1,44.9,29.92,SSW,198,0.0,3.0,92,0.01,,CLR,0.01,VWS V14.01,2013-09-29 13:18:00,
2013-09-29 08:23:00,47.2,44.7,29.91,SSW,201,1.0,3.0,91,0.01,,CLR,0.01,VWS V14.01,2013-09-29 13:23:00,
2013-09-29 08:28:00,47.4,44.9,29.92,SW,215,1.0,2.0,91,0.01,,CLR,0.01,VWS V14.01,2013-09-29 13:28:00,
2013-09-29 08:33:00,47.7,45.2,29.91,WSW,248,0.0,3.0,91,0.01,,SCT100,0.01,VWS V14.01,2013-09-29 13:33:00,
2013-09-29 08:38:00,48.0,45.5,29.92,SSW,203,2.0,3.0,91,0.01,,SCT100,0.01,VWS V14.01,2013-09-29 13:38:00,
2013-09-29 08:43:00,48.3,45.5,29.92,SSW,204,0.0,3.0,90,0.01,,SCT100,0.01,VWS V14.01,2013-09-29 13:43:00,
2013-09-29 08:48:00,48.6,45.5,29.92,SSW,205,2.0,3.0,89,0.01,,CLR,0.01,VWS V14.01,2013-09-29 13:48:00,
2013-09-29 08:53:00,49.1,45.7,29.91,SSW,212,1.0,3.0,88,0.01,,CLR,0.01,VWS V14.01,2013-09-29 13:53:00,
2013-09-29 08:58:00,49.5,46.4,29.91,SSW,212,0.0,2.0,89,0.01,,CLR,0.01,VWS V14.01,2013-09-29 13:58:00,
2013-09-29 09:03:00,49.9,46.5,29.92,SSW,203,0.0,2.0,88,0.01,,CLR,0.01,VWS V14.01,2013-09-29 14:03:00,
2013-09-29 09:08:00,50.3,46.6,29.92,SSW,198,1.0,3.0,87,0.01,,CLR,0.01,VWS V14.01,2013-09-29 14:08:00,
2013-09-29 09:13:00,50.7,47.0,29.92,SSW,204,1.0,3.0,87,0.01,,CLR,0.01,VWS V14.01,2013-09-29 14:13:00,
2013-09-29 09:18:00,51.2,47.8,29.92,WSW,238,1.0,3.0,88,0.01,,CLR,0.01,VWS V14.01,2013-09-29 14:18:00,
2013-09-29 09:23:00,51.6,47.6,29.92,SSW,210,1.0,3.0,86,0.01,,CLR,0.01,VWS V14.01,2013-09-29 14:23:00,
2013-09-29 09:28:00,51.8,47.4,29.92,WSW,243,0.0,1.0,85,0.00,,CLR,0.01,VWS V14.01,2013-09-29 14:28:00,
2013-09-29 09:33:00,52.3,47.6,29.92,SSW,205,1.0,2.0,84,0.00,,CLR,0.01,VWS V14.01,2013-09-29 14:33:00,
2013-09-29 09:38:00,52.7,47.7,29.92,SSE,163,1.0,3.0,83,0.00,,CLR,0.01,VWS V14.01,2013-09-29 14:38:00,
2013-09-29 09:43:00,53.2,48.2,29.92,SSW,203,1.0,3.0,83,0.00,,CLR,0.01,VWS V14.01,2013-09-29 14:43:00,
2013-09-29 09:48:00,53.5,47.8,29.92,SSW,210,1.0,3.0,81,0.00,,SCT100,0.01,VWS V14.01,2013-09-29 14:48:00,
2013-09-29 09:53:00,54.1,48.7,29.92,WSW,250,0.0,3.0,82,0.00,,SCT100,0.01,VWS V14.01,2013-09-29 14:53:00,
2013-09-29 09:58:00,54.7,49.0,29.92,SW,214,1.0,1.0,81,0.00,,SCT100,0.01,VWS V14.01,2013-09-29 14:58:00,
2013-09-29 10:03:00,55.3,49.2,29.92,SSW,193,2.0,2.0,80,0.00,,SCT100,0.01,VWS V14.01,2013-09-29 15:03:00,
2013-09-29 10:08:00,55.8,49.4,29.92,WSW,256,1.0,3.0,79,0.00,,SCT100,0.01,VWS V14.01,2013-09-29 15:08:00,
2013-09-29 10:13:00,56.1,49.3,29.92,SE,145,0.0,3.0,78,0.00,,SCT100,0.01,VWS V14.01,2013-09-29 15:13:00,
2013-09-29 10:18:00,56.6,49.1,29.92,SSW,203,1.0,3.0,76,0.00,,SCT100,0.01,VWS V14.01,2013-09-29 15:18:00,
2013-09-29 10:23:00,57.0,49.9,29.92,SW,223,0.0,3.0,77,0.00,,SCT100,0.01,VWS V14.01,2013-09-29 15:23:00,
2013-09-29 10:28:00,57.5,50.0,29.92,SE,142,0.0,1.0,76,0.00,,SCT100,0.01,VWS V14.01,2013-09-29 15:28:00,
2013-09-29 10:33:00,58.1,50.6,29.92,SSE,154,0.0,2.0,76,0.00,,SCT120,0.01,VWS V14.01,2013-09-29 15:33:00,
2013-09-29 10:38:00,58.4,50.2,29.92,SSW,212,2.0,5.0,74,0.00,,SCT120,0.01,VWS V14.01,2013-09-29 15:38:00,
2013-09-29 10:43:00,58.7,50.5,29.92,SSE,158,0.0,5.0,74,0.00,,SCT120,0.01,VWS V14.01,2013-09-29 15:43:00,
2013-09-29 10:48:00,59.1,50.5,29.92,SW,229,0.0,5.0,73,0.00,,SCT120,0.01,VWS V14.01,2013-09-29 15:48:00,
2013-09-29 10:53:00,59.5,50.8,29.92,SSE,161,0.0,5.0,73,0.00,,SCT120,0.01,VWS V14.01,2013-09-29 15:53:00,
2013-09-29 10:58:00,60.2,50.8,29.91,ESE,120,0.0,2.0,71,0.00,,SCT120,0.01,VWS V14.01,2013-09-29 15:58:00,
2013-09-29 11:03:00,60.7,51.2,29.91,SSE,155,2.0,3.0,71,0.00,,SCT120,0.01,VWS V14.01,2013-09-29 16:03:00,
2013-09-29 11:08:00,60.9,50.3,29.91,SE,145,2.0,3.0,68,0.00,,SCT120,0.01,VWS V14.01,2013-09-29 16:08:00,
2013-09-29 11:13:00,61.3,51.5,29.91,SSW,197,3.0,4.0,70,0.00,,SCT120,0.01,VWS V14.01,2013-09-29 16:13:00,
2013-09-29 11:18:00,61.5,50.8,29.91,South,190,3.0,5.0,68,0.00,,SCT120,0.01,VWS V14.01,2013-09-29 16:18:00,
2013-09-29 11:23:00,61.7,51.0,29.91,SSW,213,0.0,5.0,68,0.00,,SCT120,0.01,VWS V14.01,2013-09-29 16:23:00,
2013-09-29 11:28:00,62.2,51.9,29.91,SE,128,1.0,1.0,69,0.00,,SCT120,0.01,VWS V14.01,2013-09-29 16:28:00,
2013-09-29 11:33:00,62.6,51.9,29.91,South,169,2.0,4.0,68,0.00,,CLR,0.01,VWS V14.01,2013-09-29 16:33:00,
2013-09-29 11:38:00,62.9,51.0,29.90,SE,131,2.0,5.0,65,0.00,,CLR,0.01,VWS V14.01,2013-09-29 16:38:00,
2013-09-29 11:43:00,63.0,51.1,29.90,South,187,1.0,6.0,65,0.00,,CLR,0.01,VWS V14.01,2013-09-29 16:43:00,
2013-09-29 11:48:00,63.5,51.5,29.90,SE,143,1.0,6.0,65,0.00,,CLR,0.01,VWS V14.01,2013-09-29 16:48:00,
2013-09-29 11:53:00,63.9,51.9,29.90,South,190,1.0,6.0,65,0.00,,CLR,0.01,VWS V14.01,2013-09-29 16:53:00,
2013-09-29 11:58:00,64.3,52.3,29.90,SE,133,1.0,2.0,65,0.00,,CLR,0.01,VWS V14.01,2013-09-29 16:58:00,
2013-09-29 12:03:00,64.5,51.2,29.90,SE,136,5.0,7.0,62,0.00,,CLR,0.01,VWS V14.01,2013-09-29 17:03:00,
2013-09-29 12:08:00,64.7,51.4,29.90,ESE,117,2.0,7.0,62,0.00,,CLR,0.01,VWS V14.01,2013-09-29 17:08:00,
2013-09-29 12:13:00,65.0,51.7,29.89,SSE,149,3.0,7.0,62,0.00,,CLR,0.01,VWS V14.01,2013-09-29 17:13:00,
2013-09-29 12:18:00,65.5,51.7,29.89,SSW,200,3.0,7.0,61,0.00,,CLR,0.01,VWS V14.01,2013-09-29 17:18:00,
2013-09-29 12:23:00,65.9,51.2,29.89,SW,218,1.0,7.0,59,0.00,,CLR,0.01,VWS V14.01,2013-09-29 17:23:00,
2013-09-29 12:28:00,66.5,52.7,29.89,ESE,117,3.0,3.0,61,0.00,,CLR,0.01,VWS V14.01,2013-09-29 17:28:00,
2013-09-29 12:33:00,66.6,52.3,29.89,SSE,161,1.0,6.0,60,0.00,,CLR,0.01,VWS V14.01,2013-09-29 17:33:00,
2013-09-29 12:38:00,66.7,51.5,29.89,SSW,212,4.0,6.0,58,0.00,,CLR,0.01,VWS V14.01,2013-09-29 17:38:00,
2013-09-29 12:43:00,66.9,51.7,29.89,SE,131,2.0,6.0,58,0.00,,CLR,0.01,VWS V14.01,2013-09-29 17:43:00,
2013-09-29 12:48:00,67.3,52.5,29.88,South,171,2.0,6.0,59,0.00,,CLR,0.01,VWS V14.01,2013-09-29 17:48:00,
2013-09-29 12:53:00,67.7,51.9,29.88,South,169,3.0,6.0,57,0.00,,CLR,0.01,VWS V14.01,2013-09-29 17:53:00,
2013-09-29 12:58:00,67.9,51.6,29.88,SSW,195,3.0,5.0,56,0.00,,CLR,0.01,VWS V14.01,2013-09-29 17:58:00,
2013-09-29 13:03:00,68.3,51.0,29.88,SE,131,2.0,6.0,54,0.00,,CLR,0.01,VWS V14.01,2013-09-29 18:03:00,
2013-09-29 13:08:00,68.6,51.8,29.87,SSE,163,1.0,6.0,55,0.00,,CLR,0.01,VWS V14.01,2013-09-29 18:08:00,
2013-09-29 13:13:00,69.3,52.0,29.87,SSW,204,1.0,6.0,54,0.00,,CLR,0.01,VWS V14.01,2013-09-29 18:13:00,
2013-09-29 13:18:00,69.6,51.2,29.87,WSW,253,6.0,7.0,52,0.00,,CLR,0.01,VWS V14.01,2013-09-29 18:18:00,
2013-09-29 13:23:00,69.3,50.9,29.86,SE,138,3.0,7.0,52,0.00,,CLR,0.01,VWS V14.01,2013-09-29 18:23:00,
2013-09-29 13:28:00,69.5,50.6,29.86,SSW,193,3.0,6.0,51,0.00,,CLR,0.01,VWS V14.01,2013-09-29 18:28:00,
2013-09-29 13:33:00,69.8,52.9,29.86,ESE,117,3.0,7.0,55,0.00,,CLR,0.01,VWS V14.01,2013-09-29 18:33:00,
2013-09-29 13:38:00,69.9,50.4,29.86,WSW,238,2.0,7.0,50,0.00,,CLR,0.01,VWS V14.01,2013-09-29 18:38:00,
2013-09-29 13:43:00,70.2,51.2,29.86,SW,215,4.0,7.0,51,0.00,,CLR,0.01,VWS V14.01,2013-09-29 18:43:00,
2013-09-29 13:48:00,70.8,50.7,29.85,SSE,163,5.0,7.0,49,0.00,,CLR,0.01,VWS V14.01,2013-09-29 18:48:00,
2013-09-29 13:53:00,70.6,50.5,29.85,SSE,153,2.0,7.0,49,0.00,,CLR,0.01,VWS V14.01,2013-09-29 18:53:00,
2013-09-29 13:58:00,70.7,50.6,29.85,SE,145,3.0,4.0,49,0.00,,CLR,0.01,VWS V14.01,2013-09-29 18:58:00,
2013-09-29 14:03:00,70.7,50.6,29.85,SSE,163,1.0,8.0,49,0.00,,CLR,0.01,VWS V14.01,2013-09-29 19:03:00,
2013-09-29 14:08:00,70.9,51.9,29.84,South,190,1.0,8.0,51,0.00,,CLR,0.01,VWS V14.01,2013-09-29 19:08:00,
2013-09-29 14:13:00,70.9,49.1,29.84,South,191,5.0,8.0,46,0.00,,CLR,0.01,VWS V14.01,2013-09-29 19:13:00,
2013-09-29 14:18:00,71.2,51.6,29.84,SE,139,4.0,8.0,50,0.00,,CLR,0.01,VWS V14.01,2013-09-29 19:18:00,
2013-09-29 14:23:00,71.3,50.6,29.84,WSW,240,6.0,10.0,48,0.00,,CLR,0.01,VWS V14.01,2013-09-29 19:23:00,
2013-09-29 14:28:00,71.1,50.4,29.84,SSW,207,6.0,6.0,48,0.00,,CLR,0.01,VWS V14.01,2013-09-29 19:28:00,
2013-09-29 14:33:00,71.1,49.9,29.84,South,172,4.0,7.0,47,0.00,,CLR,0.01,VWS V14.01,2013-09-29 19:33:00,
2013-09-29 14:38:00,71.4,49.6,29.83,ESE,115,3.0,7.0,46,0.00,,CLR,0.01,VWS V14.01,2013-09-29 19:38:00,
2013-09-29 14:43:00,71.4,49.6,29.83,SE,134,4.0,8.0,46,0.00,,CLR,0.01,VWS V14.01,2013-09-29 19:43:00,
2013-09-29 14:48:00,71.5,47.8,29.83,ESE,122,5.0,8.0,43,0.00,,CLR,0.01,VWS V14.01,2013-09-29 19:48:00,
2013-09-29 14:53:00,71.7,48.0,29.83,ESE,122,2.0,8.0,43,0.00,,CLR,0.01,VWS V14.01,2013-09-29 19:53:00,
2013-09-29 14:58:00,71.9,48.8,29.82,SSE,149,1.0,2.0,44,0.00,,CLR,0.01,VWS V14.01,2013-09-29 19:58:00,
2013-09-29 15:03:00,72.2,48.5,29.82,SSE,150,7.0,7.0,43,0.00,,CLR,0.01,VWS V14.01,2013-09-29 20:03:00,
2013-09-29 15:08:00,72.4,47.4,29.82,South,190,3.0,7.0,41,0.00,,CLR,0.01,VWS V14.01,2013-09-29 20:08:00,
2013-09-29 15:13:00,72.7,48.3,29.82,SSE,158,2.0,8.0,42,0.00,,CLR,0.01,VWS V14.01,2013-09-29 20:13:00,
2013-09-29 15:18:00,72.7,48.3,29.82,SSW,204,3.0,8.0,42,0.00,,CLR,0.01,VWS V14.01,2013-09-29 20:18:00,
2013-09-29 15:23:00,72.8,49.0,29.82,SE,131,1.0,8.0,43,0.00,,CLR,0.01,VWS V14.01,2013-09-29 20:23:00,
2013-09-29 15:28:00,73.2,49.4,29.82,ESE,113,2.0,5.0,43,0.00,,CLR,0.01,VWS V14.01,2013-09-29 20:28:00,
2013-09-29 15:33:00,72.9,49.1,29.82,SE,143,3.0,6.0,43,0.00,,CLR,0.01,VWS V14.01,2013-09-29 20:33:00,
2013-09-29 15:38:00,73.1,47.4,29.81,SSW,197,4.0,6.0,40,0.00,,CLR,0.01,VWS V14.01,2013-09-29 20:38:00,
2013-09-29 15:43:00,73.5,48.4,29.81,South,188,3.0,10.0,41,0.00,,CLR,0.01,VWS V14.01,2013-09-29 20:43:00,
2013-09-29 15:48:00,73.5,49.0,29.81,South,188,3.0,10.0,42,0.00,,CLR,0.01,VWS V14.01,2013-09-29 20:48:00,
2013-09-29 15:53:00,73.6,47.8,29.81,SSW,197,4.0,10.0,40,0.00,,CLR,0.01,VWS V14.01,2013-09-29 20:53:00,
2013-09-29 15:58:00,73.5,47.0,29.81,SSW,200,5.0,5.0,39,0.00,,CLR,0.01,VWS V14.01,2013-09-29 20:58:00,
2013-09-29 16:03:00,73.7,48.6,29.81,SSW,208,2.0,6.0,41,0.00,,CLR,0.01,VWS V14.01,2013-09-29 21:03:00,
2013-09-29 16:08:00,73.9,48.1,29.81,South,169,4.0,8.0,40,0.00,,CLR,0.01,VWS V14.01,2013-09-29 21:08:00,
2013-09-29 16:13:00,73.9,47.4,29.80,SE,140,2.0,10.0,39,0.00,,CLR,0.01,VWS V14.01,2013-09-29 21:13:00,
2013-09-29 16:18:00,74.0,48.2,29.80,SW,215,5.0,10.0,40,0.00,,CLR,0.01,VWS V14.01,2013-09-29 21:18:00,
2013-09-29 16:23:00,73.8,47.3,29.80,WSW,245,3.0,10.0,39,0.00,,CLR,0.01,VWS V14.01,2013-09-29 21:23:00,
2013-09-29 16:28:00,73.9,48.7,29.80,SSE,158,5.0,5.0,41,0.00,,CLR,0.01,VWS V14.01,2013-09-29 21:28:00,
2013-09-29 16:33:00,73.9,47.4,29.79,SSW,208,2.0,8.0,39,0.00,,CLR,0.01,VWS V14.01,2013-09-29 21:33:00,
2013-09-29 16:38:00,74.0,48.2,29.79,South,169,4.0,8.0,40,0.00,,CLR,0.01,VWS V14.01,2013-09-29 21:38:00,
2013-09-29 16:43:00,74.0,47.5,29.79,SSE,160,5.0,8.0,39,0.00,,CLR,0.01,VWS V14.01,2013-09-29 21:43:00,
2013-09-29 16:48:00,74.0,47.5,29.79,SE,138,3.0,9.0,39,0.00,,CLR,0.01,VWS V14.01,2013-09-29 21:48:00,
2013-09-29 16:53:00,74.2,49.0,29.79,SSW,198,2.0,9.0,41,0.00,,CLR,0.01,VWS V14.01,2013-09-29 21:53:00,
2013-09-29 16:58:00,74.3,49.1,29.79,SSE,156,4.0,7.0,41,0.00,,CLR,0.01,VWS V14.01,2013-09-29 21:58:00,
2013-09-29 17:03:00,73.8,49.3,29.79,SSE,158,4.0,7.0,42,0.00,,CLR,0.01,VWS V14.01,2013-09-29 22:03:00,
2013-09-29 17:08:00,73.7,49.8,29.79,ESE,117,2.0,8.0,43,0.00,,CLR,0.01,VWS V14.01,2013-09-29 22:08:00,
2013-09-29 17:13:00,73.5,49.7,29.78,SE,139,2.0,8.0,43,0.00,,CLR,0.01,VWS V14.01,2013-09-29 22:13:00,
2013-09-29 17:18:00,73.3,49.5,29.78,SE,129,2.0,8.0,43,0.00,,CLR,0.01,VWS V14.01,2013-09-29 22:18:00,
2013-09-29 17:23:00,73.2,50.0,29.78,South,181,5.0,8.0,44,0.00,,CLR,0.01,VWS V14.01,2013-09-29 22:23:00,
2013-09-29 17:28:00,73.1,49.9,29.78,SE,126,3.0,5.0,44,0.00,,CLR,0.01,VWS V14.01,2013-09-29 22:28:00,
2013-09-29 17:33:00,73.0,49.8,29.78,SSE,166,4.0,5.0,44,0.00,,CLR,0.01,VWS V14.01,2013-09-29 22:33:00,
2013-09-29 17:38:00,73.0,49.8,29.78,SSE,160,3.0,5.0,44,0.00,,CLR,0.01,VWS V14.01,2013-09-29 22:38:00,
2013-09-29 17:43:00,73.0,49.8,29.77,South,176,4.0,5.0,44,0.00,,CLR,0.01,VWS V14.01,2013-09-29 22:43:00,
2013-09-29 17:48:00,73.0,50.4,29.77,SSE,159,4.0,6.0,45,0.00,,CLR,0.01,VWS V14.01,2013-09-29 22:48:00,
2013-09-29 17:53:00,73.0,50.4,29.77,SE,136,1.0,6.0,45,0.00,,CLR,0.01,VWS V14.01,2013-09-29 22:53:00,
2013-09-29 17:58:00,72.8,49.6,29.77,SE,135,2.0,3.0,44,0.00,,CLR,0.01,VWS V14.01,2013-09-29 22:58:00,
2013-09-29 18:03:00,72.7,49.5,29.77,SE,142,1.0,5.0,44,0.00,,CLR,0.01,VWS V14.01,2013-09-29 23:03:00,
2013-09-29 18:09:00,72.6,49.5,29.76,SE,133,1.0,5.0,44,0.00,,CLR,0.01,VWS V14.01,2013-09-29 23:09:00,
2013-09-29 18:14:00,72.4,49.9,29.76,South,176,3.0,5.0,45,0.00,,CLR,0.01,VWS V14.01,2013-09-29 23:14:00,
2013-09-29 18:19:00,72.2,49.7,29.76,SSE,149,1.0,7.0,45,0.00,,CLR,0.01,VWS V14.01,2013-09-29 23:19:00,
2013-09-29 18:24:00,72.0,48.9,29.76,SE,136,2.0,7.0,44,0.00,,CLR,0.01,VWS V14.01,2013-09-29 23:24:00,
2013-09-29 18:29:00,71.8,48.7,29.76,SE,143,2.0,4.0,44,0.00,,CLR,0.01,VWS V14.01,2013-09-29 23:29:00,
2013-09-29 18:34:00,71.4,49.0,29.76,SE,129,1.0,4.0,45,0.00,,CLR,0.01,VWS V14.01,2013-09-29 23:34:00,
2013-09-29 18:39:00,70.9,49.1,29.76,SE,140,3.0,4.0,46,0.00,,CLR,0.01,VWS V14.01,2013-09-29 23:39:00,
2013-09-29 18:44:00,70.4,49.2,29.76,SE,132,1.0,4.0,47,0.00,,CLR,0.01,VWS V14.01,2013-09-29 23:44:00,
2013-09-29 18:49:00,69.8,49.2,29.76,SSE,150,2.0,4.0,48,0.00,,CLR,0.01,VWS V14.01,2013-09-29 23:49:00,
2013-09-29 18:54:00,69.1,49.2,29.76,ESE,118,3.0,4.0,49,0.00,,CLR,0.01,VWS V14.01,2013-09-29 23:54:00,
2013-09-29 18:59:00,68.6,48.7,29.76,SSE,158,1.0,3.0,49,0.00,,CLR,0.01,VWS V14.01,2013-09-29 23:59:00,
2013-09-29 19:04:00,68.3,48.4,29.76,ESE,123,2.0,5.0,49,0.00,,CLR,0.01,VWS V14.01,2013-09-30 00:04:00,
2013-09-29 19:09:00,68.0,48.7,29.76,ESE,123,2.0,5.0,50,0.00,,CLR,0.01,VWS V14.01,2013-09-30 00:09:00,
2013-09-29 19:14:00,67.7,48.9,29.76,SE,145,0.0,5.0,51,0.00,,CLR,0.01,VWS V14.01,2013-09-30 00:14:00,
2013-09-29 19:19:00,67.4,48.7,29.76,SSE,150,2.0,5.0,51,0.00,,CLR,0.01,VWS V14.01,2013-09-30 00:19:00,
2013-09-29 19:24:00,67.1,48.4,29.76,SE,132,1.0,5.0,51,0.00,,CLR,0.01,VWS V14.01,2013-09-30 00:24:00,
2013-09-29 19:29:00,66.9,48.2,29.76,SE,146,2.0,2.0,51,0.00,,CLR,0.01,VWS V14.01,2013-09-30 00:29:00,
2013-09-29 19:34:00,66.8,48.6,29.76,SE,132,1.0,3.0,52,0.00,,CLR,0.01,VWS V14.01,2013-09-30 00:34:00,
2013-09-29 19:39:00,66.5,48.3,29.76,ESE,120,2.0,3.0,52,0.00,,CLR,0.01,VWS V14.01,2013-09-30 00:39:00,
2013-09-29 19:44:00,66.3,48.7,29.76,SSE,158,1.0,4.0,53,0.00,,CLR,0.01,VWS V14.01,2013-09-30 00:44:00,
2013-09-29 19:49:00,66.2,48.6,29.77,SE,129,1.0,4.0,53,0.00,,CLR,0.01,VWS V14.01,2013-09-30 00:49:00,
2013-09-29 19:54:00,66.0,48.4,29.77,SE,139,1.0,4.0,53,0.00,,CLR,0.01,VWS V14.01,2013-09-30 00:54:00,
2013-09-29 19:59:00,65.8,48.7,29.77,SE,128,1.0,3.0,54,0.00,,CLR,0.01,VWS V14.01,2013-09-30 00:59:00,
2013-09-29 20:04:00,65.8,48.7,29.77,SE,136,2.0,6.0,54,0.00,,CLR,0.01,VWS V14.01,2013-09-30 01:04:00,
2013-09-29 20:09:00,65.7,48.6,29.77,SE,134,1.0,6.0,54,0.00,,CLR,0.01,VWS V14.01,2013-09-30 01:09:00,
2013-09-29 20:14:00,65.6,48.5,29.76,ESE,117,2.0,6.0,54,0.00,,CLR,0.01,VWS V14.01,2013-09-30 01:14:00,
2013-09-29 20:19:00,65.5,48.4,29.76,South,177,3.0,6.0,54,0.00,,CLR,0.01,VWS V14.01,2013-09-30 01:19:00,
2013-09-29 20:24:00,65.4,48.3,29.76,SE,131,3.0,7.0,54,0.00,,CLR,0.01,VWS V14.01,2013-09-30 01:24:00,
2013-09-29 20:29:00,65.4,48.3,29.76,SSE,151,3.0,6.0,54,0.00,,CLR,0.01,VWS V14.01,2013-09-30 01:29:00,
2013-09-29 20:34:00,65.4,48.3,29.76,ESE,116,3.0,7.0,54,0.00,,SCT120,0.01,VWS V14.01,2013-09-30 01:34:00,
2013-09-29 20:39:00,65.1,48.5,29.76,SE,128,3.0,7.0,55,0.00,,SCT120,0.01,VWS V14.01,2013-09-30 01:39:00,
2013-09-29 20:44:00,65.0,48.5,29.76,SE,131,1.0,7.0,55,0.00,,SCT120,0.01,VWS V14.01,2013-09-30 01:44:00,
2013-09-29 20:49:00,64.9,48.4,29.76,SE,124,1.0,7.0,55,0.00,,SCT120,0.01,VWS V14.01,2013-09-30 01:49:00,
2013-09-29 20:54:00,64.7,48.7,29.76,ESE,115,3.0,7.0,56,0.00,,SCT120,0.01,VWS V14.01,2013-09-30 01:54:00,
2013-09-29 20:59:00,64.6,48.6,29.76,SSE,167,3.0,6.0,56,0.00,,SCT120,0.01,VWS V14.01,2013-09-30 01:59:00,
2013-09-29 21:04:00,64.5,49.0,29.76,SE,145,2.0,6.0,57,0.00,,SCT120,0.01,VWS V14.01,2013-09-30 02:04:00,
2013-09-29 21:09:00,64.2,48.7,29.76,SSE,160,3.0,7.0,57,0.00,,SCT120,0.01,VWS V14.01,2013-09-30 02:09:00,
2013-09-29 21:14:00,64.1,48.6,29.76,SSE,155,5.0,7.0,57,0.00,,SCT120,0.01,VWS V14.01,2013-09-30 02:14:00,
2013-09-29 21:19:00,63.9,48.8,29.76,SSE,167,3.0,7.0,58,0.00,,SCT120,0.01,VWS V14.01,2013-09-30 02:19:00,
2013-09-29 21:24:00,63.8,48.8,29.76,SSE,155,4.0,7.0,58,0.00,,SCT120,0.01,VWS V14.01,2013-09-30 02:24:00,
2013-09-29 21:29:00,63.9,48.8,29.76,SSE,153,5.0,9.0,58,0.00,,SCT120,0.01,VWS V14.01,2013-09-30 02:29:00,
2013-09-29 21:34:00,63.9,48.8,29.76,South,180,5.0,9.0,58,0.00,,SCT120,0.01,VWS V14.01,2013-09-30 02:34:00,
2013-09-29 21:39:00,63.8,49.2,29.76,SE,145,4.0,9.0,59,0.00,,SCT120,0.01,VWS V14.01,2013-09-30 02:39:00,
2013-09-29 21:44:00,63.7,49.1,29.76,SSE,160,1.0,9.0,59,0.00,,SCT120,0.01,VWS V14.01,2013-09-30 02:44:00,
2013-09-29 21:49:00,63.5,48.9,29.76,SSE,149,2.0,9.0,59,0.00,,SCT120,0.01,VWS V14.01,2013-09-30 02:49:00,
2013-09-29 21:54:00,63.4,49.3,29.76,ESE,120,2.0,9.0,60,0.00,,SCT120,0.01,VWS V14.01,2013-09-30 02:54:00,
2013-09-29 21:59:00,63.2,49.1,29.76,SE,128,2.0,4.0,60,0.00,,SCT120,0.01,VWS V14.01,2013-09-30 02:59:00,
2013-09-29 22:04:00,63.1,49.0,29.76,SSE,163,3.0,7.0,60,0.00,,SCT120,0.01,VWS V14.01,2013-09-30 03:04:00,
2013-09-29 22:09:00,63.0,48.9,29.76,South,172,3.0,7.0,60,0.00,,SCT120,0.01,VWS V14.01,2013-09-30 03:09:00,
2013-09-29 22:14:00,63.0,48.9,29.76,SE,139,1.0,7.0,60,0.00,,SCT120,0.01,VWS V14.01,2013-09-30 03:14:00,
2013-09-29 22:19:00,63.0,48.9,29.76,South,176,2.0,7.0,60,0.00,,SCT120,0.01,VWS V14.01,2013-09-30 03:19:00,
2013-09-29 22:24:00,62.9,48.8,29.76,South,175,5.0,8.0,60,0.00,,SCT120,0.01,VWS V14.01,2013-09-30 03:24:00,
2013-09-29 22:29:00,62.9,48.8,29.76,South,177,4.0,4.0,60,0.00,,SCT120,0.01,VWS V14.01,2013-09-30 03:29:00,
2013-09-29 22:34:00,62.8,48.7,29.76,SSW,204,2.0,7.0,60,0.00,,SCT120,0.01,VWS V14.01,2013-09-30 03:34:00,
2013-09-29 22:39:00,62.7,48.6,29.76,SSW,203,4.0,7.0,60,0.00,,SCT120,0.01,VWS V14.01,2013-09-30 03:39:00,
2013-09-29 22:44:00,62.8,48.7,29.76,South,188,2.0,7.0,60,0.00,,SCT120,0.01,VWS V14.01,2013-09-30 03:44:00,
2013-09-29 22:49:00,62.8,48.7,29.76,South,186,3.0,8.0,60,0.00,,BKN120,0.01,VWS V14.01,2013-09-30 03:49:00,
2013-09-29 22:54:00,62.9,48.8,29.76,South,188,2.0,9.0,60,0.00,,BKN120,0.01,VWS V14.01,2013-09-30 03:54:00,
2013-09-29 22:59:00,62.8,48.7,29.75,South,183,5.0,8.0,60,0.00,,BKN120,0.01,VWS V14.01,2013-09-30 03:59:00,
2013-09-29 23:01:00,62.8,48.7,29.75,South,179,3.0,8.0,60,0.00,,BKN120,0.01,VWS V14.01,2013-09-30 04:01:00,
2013-09-29 23:06:00,62.8,48.7,29.75,SSW,205,4.0,8.0,60,0.00,,BKN120,0.01,VWS V14.01,2013-09-30 04:06:00,
2013-09-29 23:11:00,62.9,48.4,29.75,SSW,197,2.0,8.0,59,0.00,,BKN120,0.01,VWS V14.01,2013-09-30 04:11:00,
2013-09-29 23:16:00,62.8,48.7,29.75,South,180,4.0,8.0,60,0.00,,SCT120,0.01,VWS V14.01,2013-09-30 04:16:00,
2013-09-29 23:21:00,62.7,48.6,29.75,SSE,156,2.0,8.0,60,0.00,,BKN120,0.01,VWS V14.01,2013-09-30 04:21:00,
2013-09-29 23:26:00,62.7,48.6,29.75,South,190,3.0,8.0,60,0.00,,BKN120,0.01,VWS V14.01,2013-09-30 04:26:00,
2013-09-29 23:31:00,62.7,48.6,29.75,SSW,207,4.0,8.0,60,0.00,,BKN120,0.01,VWS V14.01,2013-09-30 04:31:00,
2013-09-29 23:36:00,62.6,48.5,29.75,SSW,210,2.0,9.0,60,0.00,,SCT120,0.01,VWS V14.01,2013-09-30 04:36:00,
2013-09-29 23:41:00,62.6,48.5,29.75,South,187,2.0,9.0,60,0.00,,SCT120,0.01,VWS V14.01,2013-09-30 04:41:00,
2013-09-29 23:46:00,62.5,48.4,29.74,SE,128,4.0,9.0,60,0.00,,SCT120,0.01,VWS V14.01,2013-09-30 04:46:00,
2013-09-29 23:51:00,62.5,48.4,29.74,South,183,5.0,9.0,60,0.00,,SCT120,0.01,VWS V14.01,2013-09-30 04:51:00,
2013-09-29 23:56:00,62.4,48.8,29.74,South,173,3.0,9.0,61,0.00,,BKN120,0.01,VWS V14.01,2013-09-30 04:56:00,